[[{"header":{"parameterUnit":"m.s-1","parameterCategory":1,"la1":30.2991,"la2":30.254,"lo1":-89.0895,"lo2":-89.0444,"dy":0.0017,"dx":0.0017,"nx":28,"ny":28,"refTime":"2024-05-14T09:00:00:Z","depth":0,"parameterNumber":2,"parameterNumberName":"U-component_of_WINDS"},"data":[0,0,0,0,0,0,0,0,0,0,0,0,0,0,0,0,0,0,0,0,0,0,0,0,0,0,0,0,0,0,0,0,0,0,0,0,0,0,0,0,0,0,0,0,0,0,0,0,0,0,0,0,0,0,0,0,0,0,1.6453,1.6452,0,1.6405,1.6405,1.6404,1.6403,1.6403,1.6404,1.6404,1.6359,1.6358,1.6356,0,0,0,0,0,0,0,0,0,0,0,0,0,1.6548,1.6546,1.6453,1.6452,1.6452,1.6406,1.6405,1.6404,1.6403,1.6403,1.6404,1.6405,1.636,1.6358,1.6356,0,0,0,0,0,0,0,0,0,0,0,0,0,1.6504,1.6545,1.6453,1.6445,1.6444,1.6406,1.6405,1.6404,1.6403,1.6403,1.6404,1.6405,1.6361,1.6358,1.6356,1.6323,0,0,1.6348,1.6347,0,0,0,0,0,0,0,0,1.6507,1.6501,1.6447,1.6446,1.6444,1.6411,1.6422,1.6377,1.6402,1.6418,1.6405,1.6405,1.6376,1.6372,1.6362,1.6321,1.6319,1.6347,1.6346,1.6345,1.6344,0,0,0,0,0,0,0,1.651,1.6503,1.6434,1.6446,1.6445,1.6446,1.6441,1.6413,1.6393,1.6417,1.6417,1.6411,1.6376,1.6364,1.6361,1.6318,1.6348,1.6345,1.6344,1.6343,1.6251,1.625,0,0,0,0,0,0,1.6513,1.6505,1.6436,1.6433,1.6478,1.6444,1.6438,1.6421,1.6393,1.639,1.641,1.6411,1.6368,1.6364,1.6359,1.632,1.6345,1.6342,1.6341,1.6252,1.6251,1.625,0,0,0,0,0,0,1.6516,1.6507,1.6438,1.6469,1.646,1.6441,1.6422,1.6419,1.6408,1.6388,1.6385,1.6402,1.6369,1.6363,1.6332,1.6319,1.6341,1.6339,1.6253,1.6251,1.625,1.6242,0,0,0,0,0,0,1.6518,1.6508,1.6494,1.6469,1.6458,1.641,1.6421,1.6418,1.6403,1.6404,1.638,1.6377,1.6369,1.6336,1.633,1.6316,1.6337,1.6254,1.6252,1.6251,1.6243,1.624,1.6238,0,0,0,0,0,1.6522,1.6493,1.6493,1.6485,1.644,1.6409,1.6403,1.6394,1.6402,1.6389,1.6377,1.6377,1.6321,1.6333,1.6326,1.6311,1.6255,1.6253,1.6251,1.6244,1.6241,1.6238,0,0,0,0,0,0,1.6518,1.649,1.6489,1.6451,1.6433,1.6409,1.6391,1.639,1.6369,1.6371,1.6362,1.6356,1.6326,1.6316,1.6329,1.6279,1.6289,1.6286,1.6287,1.6283,1.6281,1.6284,1.6335,0,0,0,0,0,1.6512,1.6488,1.6466,1.6435,1.6425,1.641,1.6396,1.6391,1.6371,1.6364,1.6349,1.6332,1.631,1.6296,1.6275,1.6242,1.6238,1.6228,1.6226,1.6224,1.6221,1.6204,1.62,1.6243,1.6243,1.6243,0,0,1.6501,1.6483,1.6468,1.6433,1.6418,1.6395,1.6403,1.6378,1.6361,1.636,1.633,1.632,1.63,1.6268,1.6254,1.6258,1.6208,1.6221,1.622,1.6218,1.6202,1.6198,1.6194,1.6242,1.6242,1.6242,0,0,1.6469,1.6452,1.6425,1.641,1.6387,1.6378,1.6372,1.6349,1.6341,1.6311,1.6311,1.6292,1.6255,1.6241,1.6229,1.6196,1.6196,1.6189,1.6175,1.616,1.6156,1.6153,1.6143,1.6139,1.6187,1.6187,1.6187,0,1.6458,1.6421,1.6412,1.6387,1.6373,1.6371,1.6346,1.6332,1.6304,1.6295,1.63,1.6255,1.6242,1.6208,1.62,1.619,1.6184,1.6192,1.6157,1.6154,1.6151,1.6141,1.6137,1.6186,1.6186,1.6186,1.6186,0,1.641,1.6386,1.6367,1.634,1.6324,1.6299,1.6288,1.6273,1.627,1.6261,1.6232,1.6216,1.6193,1.6185,1.6181,1.6151,1.6155,1.6159,1.6169,1.6147,1.6137,1.6133,1.6185,1.6185,1.6185,1.6186,0,0,1.6372,1.6341,1.6335,1.6324,1.63,1.6281,1.6258,1.6235,1.6223,1.6205,1.6186,1.6156,1.616,1.6147,1.6143,1.6129,1.6106,1.6135,1.6135,1.6131,1.6073,1.607,1.6066,1.6106,1.6105,1.6105,1.6075,0,1.6337,1.6294,1.6286,1.6249,1.6227,1.6227,1.6207,1.6191,1.6183,1.6165,1.6156,1.6135,1.6142,1.6134,1.6121,1.6111,1.6094,1.6113,1.609,1.6089,1.6095,1.606,1.6057,1.6029,1.6071,1.6071,1.607,0,1.6291,1.6271,1.6232,1.6213,1.6204,1.6186,1.6165,1.6148,1.6131,1.6126,1.6113,1.6111,1.6089,1.6101,1.6071,1.6084,1.6075,1.6069,1.6068,1.6065,1.6078,1.6057,1.602,1.6016,1.6064,1.6064,1.6065,0,1.6268,1.6232,1.6204,1.6195,1.6172,1.616,1.615,1.6134,1.6122,1.6105,1.6097,1.6078,1.6068,1.6054,1.6048,1.6056,1.6019,1.603,1.6015,1.6016,1.6007,1.6007,1.5968,1.6001,1.6001,1.6001,1.6001,0,1.623,1.6206,1.6194,1.6177,1.6151,1.6144,1.612,1.611,1.6097,1.608,1.6079,1.6063,1.6056,1.6039,1.6034,1.6012,1.6007,1.6003,1.6002,1.6003,1.6004,1.5996,1.5998,1.6,1.6,1.6,1.6,0,1.6199,1.619,1.616,1.6142,1.6137,1.6119,1.6105,1.6089,1.6082,1.606,1.6055,1.6044,1.6025,1.6018,1.5994,1.5991,1.5965,1.5966,1.597,1.597,1.5956,1.5958,1.5911,1.5905,1.5941,1.5941,1.5941,0,1.6176,1.6157,1.6138,1.6126,1.6116,1.6097,1.6085,1.6079,1.6066,1.6048,1.6035,1.6016,1.6,1.597,1.5961,1.5944,1.5944,1.5929,1.5941,1.5943,1.5944,1.5945,1.5944,1.5926,1.5926,1.5926,1.5925,0,1.6135,1.6132,1.6114,1.6095,1.608,1.6065,1.605,1.6041,1.6033,1.602,1.6,1.5988,1.5965,1.5947,1.593,1.5921,1.5922,1.5922,1.5918,1.5918,1.5922,1.592,1.5964,1.5923,1.5923,1.5923,1.5923,1.5923,1.6107,1.6092,1.6076,1.6057,1.6046,1.6033,1.6018,1.601,1.5993,1.5973,1.5972,1.5951,1.5938,1.5915,1.5907,1.5891,1.5895,1.5889,1.5888,1.5886,1.5885,1.5925,1.5888,1.5888,1.5888,1.5889,1.5889,0,1.6067,1.6058,1.604,1.602,1.6005,1.6008,1.5993,1.5981,1.5963,1.595,1.5935,1.5914,1.5897,1.5888,1.5871,1.5861,1.5861,1.5857,1.5857,1.5856,1.5882,1.5888,1.5857,1.5857,1.5857,1.5857,1.5857,1.5857,1.6044,1.6019,1.6015,1.5985,1.5976,1.5956,1.5947,1.5936,1.5926,1.5903,1.5888,1.5883,1.5872,1.5855,1.584,1.5838,1.5832,1.5828,1.5826,1.5851,1.5854,1.5857,1.5862,1.5826,1.5826,1.58,1.58,1.58]},{"header":{"parameterUnit":"m.s-1","parameterCategory":1,"la1":30.2991,"la2":30.254,"lo1":-89.0895,"lo2":-89.0444,"dy":0.0017,"dx":0.0017,"nx":28,"ny":28,"refTime":"2024-05-14T09:00:00:Z","depth":0,"parameterNumber":3,"parameterNumberName":"V-component_of_WINDS"},"data":[0,0,0,0,0,0,0,0,0,0,0,0,0,0,0,0,0,0,0,0,0,0,0,0,0,0,0,0,0,0,0,0,0,0,0,0,0,0,0,0,0,0,0,0,0,0,0,0,0,0,0,0,0,0,0,0,0,0,3.0095,3.0097,0,3.0275,3.0277,3.0279,3.0338,3.0337,3.0336,3.0335,3.0517,3.0522,3.0528,0,0,0,0,0,0,0,0,0,0,0,0,0,2.9798,2.9803,3.0095,3.0097,3.01,3.0275,3.0277,3.028,3.0338,3.0337,3.0336,3.0335,3.0515,3.0522,3.0529,0,0,0,0,0,0,0,0,0,0,0,0,0,2.9947,2.9805,3.0095,3.015,3.0157,3.0274,3.0277,3.028,3.0338,3.0337,3.0336,3.0334,3.0513,3.0521,3.0529,3.0605,0,0,3.0555,3.0559,0,0,0,0,0,0,0,0,2.9939,2.9958,3.0139,3.0146,3.0154,3.0283,3.0239,3.0389,3.0338,3.0269,3.0335,3.0334,3.044,3.0454,3.0491,3.0613,3.0621,3.0556,3.0561,3.0564,3.0567,0,0,0,0,0,0,0,2.9928,2.9951,3.0166,3.0142,3.0151,3.0164,3.0184,3.0268,3.0359,3.0275,3.028,3.03,3.0444,3.0482,3.0495,3.0624,3.0556,3.0563,3.0568,3.0571,3.0815,3.0816,0,0,0,0,0,0,2.9909,2.9942,3.0161,3.0172,3.0041,3.017,3.0193,3.0243,3.0358,3.0375,3.0301,3.0302,3.0469,3.0485,3.0502,3.0596,3.0564,3.0572,3.0577,3.0813,3.0815,3.0817,0,0,0,0,0,0,2.9902,2.9928,3.0153,3.0058,3.0088,3.0177,3.0232,3.0247,3.0286,3.0378,3.0394,3.0324,3.0468,3.049,3.0578,3.0603,3.0576,3.0584,3.0812,3.0814,3.0816,3.0786,0,0,0,0,0,0,2.9894,2.9925,2.9956,3.0058,3.0093,3.0228,3.0234,3.0251,3.03,3.0303,3.0404,3.0419,3.0469,3.0566,3.0587,3.0614,3.059,3.081,3.0813,3.0815,3.0785,3.0787,3.0789,0,0,0,0,0,2.9883,2.9941,2.9957,2.9983,3.0133,3.023,3.0249,3.0306,3.0302,3.0333,3.0391,3.0416,3.0597,3.0574,3.0598,3.0629,3.0808,3.0812,3.0815,3.0785,3.0787,3.0788,0,0,0,0,0,0,2.9839,2.9955,2.9975,3.0068,3.0138,3.0239,3.028,3.0307,3.0379,3.0379,3.0446,3.0468,3.055,3.0599,3.0571,3.0706,3.0704,3.0712,3.0672,3.0675,3.0677,3.0663,3.0597,0,0,0,0,0,2.984,2.991,3.0007,3.008,3.0114,3.019,3.0235,3.0272,3.0348,3.0378,3.0443,3.0514,3.0587,3.0634,3.0706,3.0792,3.0814,3.0825,3.0826,3.0827,3.0834,3.088,3.0886,3.0827,3.0827,3.0827,0,0,2.9843,2.9915,2.9955,3.0072,3.0132,3.0201,3.0215,3.0289,3.034,3.0389,3.0476,3.0526,3.061,3.0697,3.0738,3.0739,3.0854,3.0831,3.0831,3.0838,3.0884,3.089,3.0895,3.0829,3.0829,3.0829,0,0,2.9884,2.9946,3.0013,3.0071,3.016,3.021,3.0226,3.0323,3.0358,3.0446,3.0483,3.0545,3.0669,3.0727,3.0772,3.0832,3.0856,3.0853,3.0862,3.0906,3.0911,3.0915,3.0935,3.0941,3.0859,3.0859,3.0859,0,2.9876,2.9984,3.0043,3.0114,3.0163,3.021,3.0276,3.033,3.0438,3.047,3.047,3.0625,3.0685,3.0785,3.0799,3.0835,3.0854,3.0842,3.0906,3.0911,3.0916,3.0935,3.0942,3.0858,3.0858,3.0858,3.0858,0,2.9969,3.0042,3.0084,3.0187,3.0241,3.031,3.0378,3.0425,3.0457,3.0506,3.0594,3.0668,3.0754,3.0781,3.0813,3.0885,3.0882,3.0893,3.0891,3.0919,3.0938,3.0947,3.0857,3.0857,3.0857,3.0857,0,0,2.9989,3.0122,3.0136,3.0183,3.0283,3.034,3.0409,3.0494,3.0533,3.0604,3.0663,3.0766,3.0776,3.0827,3.0866,3.0905,3.0945,3.0911,3.0914,3.0913,3.1026,3.1017,3.1025,3.0961,3.0963,3.0965,3.1018,0,3.0041,3.0168,3.0222,3.0323,3.039,3.0435,3.0494,3.0561,3.0609,3.0671,3.0723,3.0795,3.0803,3.0834,3.0875,3.0931,3.0968,3.0928,3.1015,3.1017,3.0992,3.1035,3.1027,3.1074,3.1027,3.1028,3.1029,0,3.0121,3.0193,3.03,3.0391,3.0421,3.0474,3.0555,3.0615,3.069,3.0722,3.0778,3.0814,3.0886,3.0879,3.0978,3.095,3.0988,3.102,3.1024,3.1034,3.1025,3.1045,3.1091,3.1097,3.1042,3.1041,3.104,0,3.0122,3.0246,3.0326,3.0365,3.0472,3.0508,3.0554,3.0629,3.0676,3.0746,3.0777,3.0854,3.0896,3.0955,3.101,3.1,3.1103,3.1101,3.1129,3.1128,3.1149,3.1147,3.1201,3.1175,3.1175,3.1174,3.1174,0,3.0176,3.0239,3.0328,3.0377,3.0449,3.051,3.0579,3.0628,3.0694,3.0752,3.0794,3.0847,3.0917,3.0979,3.1022,3.1096,3.1115,3.1141,3.1152,3.1138,3.1134,3.1164,3.1161,3.1176,3.1176,3.1176,3.1175,0,3.019,3.0253,3.0342,3.0436,3.0461,3.051,3.059,3.0638,3.0686,3.0759,3.0779,3.0855,3.093,3.099,3.1088,3.1117,3.1194,3.1206,3.1168,3.1174,3.1198,3.1195,3.1272,3.1285,3.1251,3.1251,3.1251,0,3.022,3.027,3.0369,3.0411,3.0457,3.0524,3.0572,3.0633,3.068,3.0769,3.0806,3.0883,3.0948,3.1065,3.1128,3.1201,3.1216,3.1238,3.1227,3.121,3.1215,3.1211,3.1215,3.1238,3.1239,3.1239,3.1239,0,3.0265,3.0293,3.0361,3.0439,3.0495,3.0559,3.0624,3.0655,3.0728,3.0779,3.0855,3.0906,3.1004,3.108,3.116,3.1206,3.1234,3.1241,3.1252,3.1237,3.1212,3.1225,3.117,3.1239,3.1239,3.1239,3.1239,3.1239,3.0288,3.0333,3.041,3.0483,3.0538,3.0597,3.0647,3.0701,3.0766,3.0852,3.0883,3.0961,3.1033,3.1144,3.119,3.125,3.1253,3.1269,3.1272,3.1275,3.1272,3.1203,3.1265,3.1265,3.1265,3.1265,3.1265,0,3.0334,3.0385,3.0452,3.0541,3.0598,3.062,3.0692,3.0738,3.0806,3.0872,3.0934,3.1021,3.1094,3.1162,3.1237,3.1273,3.1287,3.129,3.1288,3.1298,3.1266,3.1249,3.1277,3.1277,3.1277,3.1277,3.1277,3.1277,3.0365,3.0443,3.0479,3.0584,3.0634,3.0711,3.0751,3.0805,3.0857,3.0952,3.1013,3.1056,3.1122,3.1202,3.1269,3.1287,3.1313,3.1312,3.1333,3.1302,3.13,3.1299,3.1283,3.1318,3.1318,3.136,3.136,3.1361]}]]